Year,Month,Day,Hour,Minute,Value (Times are PST for temperature in C)
2015,10,15,00,00,7.90
2015,10,15,00,01,7.80
2015,10,15,00,02,7.90
2015,10,15,00,03,7.90
2015,10,15,00,04,7.80
2015,10,15,00,05,7.80
2015,10,15,00,06,7.80
2015,10,15,00,07,7.80
2015,10,15,00,08,7.80
2015,10,15,00,09,7.70
2015,10,15,00,10,7.70
2015,10,15,00,11,7.70
2015,10,15,00,12,7.70
2015,10,15,00,13,7.70
2015,10,15,00,14,7.70
2015,10,15,00,15,7.70
2015,10,15,00,16,7.70
2015,10,15,00,17,7.80
2015,10,15,00,18,7.80
2015,10,15,00,19,7.80
2015,10,15,00,20,7.80
2015,10,15,00,21,7.70
2015,10,15,00,22,7.70
2015,10,15,00,23,7.70
2015,10,15,00,24,7.60
2015,10,15,00,25,7.60
2015,10,15,00,26,7.60
2015,10,15,00,27,7.60
2015,10,15,00,28,7.50
2015,10,15,00,29,7.50
2015,10,15,00,30,7.50
2015,10,15,00,31,7.40
2015,10,15,00,32,7.40
2015,10,15,00,33,7.40
2015,10,15,00,34,7.40
2015,10,15,00,35,7.40
2015,10,15,00,36,7.40
2015,10,15,00,37,7.40
2015,10,15,00,38,7.40
2015,10,15,00,39,7.40
2015,10,15,00,40,7.40
2015,10,15,00,41,7.40
2015,10,15,00,42,7.40
2015,10,15,00,43,7.40
2015,10,15,00,44,7.40
2015,10,15,00,45,7.40
2015,10,15,00,46,7.40
2015,10,15,00,47,7.30
2015,10,15,00,48,7.30
2015,10,15,00,49,7.30
2015,10,15,00,50,7.30
2015,10,15,00,51,7.30
2015,10,15,00,52,7.30
2015,10,15,00,53,7.30
2015,10,15,00,54,7.30
2015,10,15,00,55,7.30
2015,10,15,00,56,7.30
2015,10,15,00,57,7.30
2015,10,15,00,58,7.30
2015,10,15,00,59,7.30
2015,10,15,01,00,7.30
2015,10,15,01,01,7.30
2015,10,15,01,02,7.30
2015,10,15,01,03,7.30
2015,10,15,01,04,7.30
2015,10,15,01,05,7.30
2015,10,15,01,06,7.30
2015,10,15,01,07,7.30
2015,10,15,01,08,7.30
2015,10,15,01,09,7.30
2015,10,15,01,10,7.30
2015,10,15,01,11,7.30
2015,10,15,01,12,7.30
2015,10,15,01,13,7.30
2015,10,15,01,14,7.30
2015,10,15,01,15,7.20
2015,10,15,01,16,7.20
2015,10,15,01,17,7.20
2015,10,15,01,18,7.20
2015,10,15,01,19,7.20
2015,10,15,01,20,7.20
2015,10,15,01,21,7.20
2015,10,15,01,22,7.30
2015,10,15,01,23,7.30
2015,10,15,01,24,7.40
2015,10,15,01,25,7.50
2015,10,15,01,26,7.60
2015,10,15,01,27,7.60
2015,10,15,01,28,7.70
2015,10,15,01,29,7.70
2015,10,15,01,30,7.80
2015,10,15,01,31,7.80
2015,10,15,01,32,7.90
2015,10,15,01,33,7.90
2015,10,15,01,34,7.90
2015,10,15,01,35,7.90
2015,10,15,01,36,7.90
2015,10,15,01,37,7.90
2015,10,15,01,38,8.00
2015,10,15,01,39,8.00
2015,10,15,01,40,8.10
2015,10,15,01,41,8.10
2015,10,15,01,42,8.10
2015,10,15,01,43,8.20
2015,10,15,01,44,8.20
2015,10,15,01,45,8.20
2015,10,15,01,46,8.20
2015,10,15,01,47,8.20
2015,10,15,01,48,8.10
2015,10,15,01,49,8.10
2015,10,15,01,50,8.00
2015,10,15,01,51,7.90
2015,10,15,01,52,7.80
2015,10,15,01,53,7.70
2015,10,15,01,54,7.60
2015,10,15,01,55,7.50
2015,10,15,01,56,7.40
2015,10,15,01,57,7.30
2015,10,15,01,58,7.30
2015,10,15,01,59,7.20
2015,10,15,02,00,7.20
2015,10,15,02,01,7.10
2015,10,15,02,02,7.10
2015,10,15,02,03,7.00
2015,10,15,02,04,7.00
2015,10,15,02,05,6.90
2015,10,15,02,06,6.90
2015,10,15,02,07,6.90
2015,10,15,02,08,6.80
2015,10,15,02,09,6.80
2015,10,15,02,10,6.80
2015,10,15,02,11,6.80
2015,10,15,02,12,6.80
2015,10,15,02,13,6.80
2015,10,15,02,14,6.70
2015,10,15,02,15,6.70
2015,10,15,02,16,6.70
2015,10,15,02,17,6.70
2015,10,15,02,18,6.70
2015,10,15,02,19,6.70
2015,10,15,02,20,6.60
2015,10,15,02,21,6.60
2015,10,15,02,22,6.60
2015,10,15,02,23,6.60
2015,10,15,02,24,6.60
2015,10,15,02,25,6.60
2015,10,15,02,26,6.60
2015,10,15,02,27,6.60
2015,10,15,02,28,6.60
2015,10,15,02,29,6.60
2015,10,15,02,30,6.60
2015,10,15,02,31,6.60
2015,10,15,02,32,6.60
2015,10,15,02,33,6.60
2015,10,15,02,34,6.60
2015,10,15,02,35,6.70
2015,10,15,02,36,6.70
2015,10,15,02,37,6.70
2015,10,15,02,38,6.70
2015,10,15,02,39,6.70
2015,10,15,02,40,6.70
2015,10,15,02,41,6.70
2015,10,15,02,42,6.70
2015,10,15,02,43,6.70
2015,10,15,02,44,6.70
2015,10,15,02,45,6.70
2015,10,15,02,46,6.70
2015,10,15,02,47,6.70
2015,10,15,02,48,6.70
2015,10,15,02,49,6.70
2015,10,15,02,50,6.70
2015,10,15,02,51,6.70
2015,10,15,02,52,6.80
2015,10,15,02,53,6.80
2015,10,15,02,54,6.80
2015,10,15,02,55,6.80
2015,10,15,02,56,6.80
2015,10,15,02,57,6.80
2015,10,15,02,58,6.80
2015,10,15,02,59,6.80
2015,10,15,03,00,6.80
2015,10,15,03,01,6.80
2015,10,15,03,02,6.80
2015,10,15,03,03,6.80
2015,10,15,03,04,6.80
2015,10,15,03,05,6.80
2015,10,15,03,06,6.80
2015,10,15,03,07,6.80
2015,10,15,03,08,6.80
2015,10,15,03,09,6.80
2015,10,15,03,10,6.80
2015,10,15,03,11,6.80
2015,10,15,03,12,6.80
2015,10,15,03,13,6.80
2015,10,15,03,14,6.80
2015,10,15,03,15,6.80
2015,10,15,03,16,6.80
2015,10,15,03,17,6.90
2015,10,15,03,18,6.90
2015,10,15,03,19,7.00
2015,10,15,03,20,7.00
2015,10,15,03,21,7.10
2015,10,15,03,22,7.20
2015,10,15,03,23,7.20
2015,10,15,03,24,7.20
2015,10,15,03,25,7.20
2015,10,15,03,26,7.20
2015,10,15,03,27,7.20
2015,10,15,03,28,7.20
2015,10,15,03,29,7.20
2015,10,15,03,30,7.20
2015,10,15,03,31,7.10
2015,10,15,03,32,7.00
2015,10,15,03,33,7.00
2015,10,15,03,34,6.90
2015,10,15,03,35,6.90
2015,10,15,03,36,6.90
2015,10,15,03,37,6.90
2015,10,15,03,38,6.90
2015,10,15,03,39,6.90
2015,10,15,03,40,6.90
2015,10,15,03,41,6.90
2015,10,15,03,42,6.80
2015,10,15,03,43,6.80
2015,10,15,03,44,6.80
2015,10,15,03,45,6.70
2015,10,15,03,46,6.70
2015,10,15,03,47,6.70
2015,10,15,03,48,6.60
2015,10,15,03,49,6.60
2015,10,15,03,50,6.50
2015,10,15,03,51,6.50
2015,10,15,03,52,6.40
2015,10,15,03,53,6.40
2015,10,15,03,54,6.30
2015,10,15,03,55,6.30
2015,10,15,03,56,6.30
2015,10,15,03,57,6.30
2015,10,15,03,58,6.30
2015,10,15,03,59,6.30
2015,10,15,04,00,6.30
2015,10,15,04,01,6.30
2015,10,15,04,02,6.30
2015,10,15,04,03,6.30
2015,10,15,04,04,6.30
2015,10,15,04,05,6.20
2015,10,15,04,06,6.20
2015,10,15,04,07,6.20
2015,10,15,04,08,6.10
2015,10,15,04,09,6.10
2015,10,15,04,10,6.00
2015,10,15,04,11,6.00
2015,10,15,04,12,5.90
2015,10,15,04,13,5.90
2015,10,15,04,14,5.80
2015,10,15,04,15,5.80
2015,10,15,04,16,5.70
2015,10,15,04,17,5.70
2015,10,15,04,18,5.70
2015,10,15,04,19,5.70
2015,10,15,04,20,5.70
2015,10,15,04,21,5.70
2015,10,15,04,22,5.80
2015,10,15,04,23,5.80
2015,10,15,04,24,5.80
2015,10,15,04,25,5.90
2015,10,15,04,26,5.90
2015,10,15,04,27,5.90
2015,10,15,04,28,6.00
2015,10,15,04,29,6.00
2015,10,15,04,30,6.10
2015,10,15,04,31,6.10
2015,10,15,04,32,6.20
2015,10,15,04,33,6.20
2015,10,15,04,34,6.20
2015,10,15,04,35,6.30
2015,10,15,04,36,6.30
2015,10,15,04,37,6.40
2015,10,15,04,38,6.50
2015,10,15,04,39,6.70
2015,10,15,04,40,6.90
2015,10,15,04,41,7.00
2015,10,15,04,42,7.20
2015,10,15,04,43,7.30
2015,10,15,04,44,7.40
2015,10,15,04,45,7.40
2015,10,15,04,46,7.50
2015,10,15,04,47,7.50
2015,10,15,04,48,7.50
2015,10,15,04,49,7.40
2015,10,15,04,50,7.40
2015,10,15,04,51,7.40
2015,10,15,04,52,7.40
2015,10,15,04,53,7.40
2015,10,15,04,54,7.40
2015,10,15,04,55,7.40
2015,10,15,04,56,7.40
2015,10,15,04,57,7.40
2015,10,15,04,58,7.40
2015,10,15,04,59,7.40
2015,10,15,05,00,7.40
2015,10,15,05,01,7.40
2015,10,15,05,02,7.30
2015,10,15,05,03,7.20
2015,10,15,05,04,7.20
2015,10,15,05,05,7.20
2015,10,15,05,06,7.20
2015,10,15,05,07,7.20
2015,10,15,05,08,7.20
2015,10,15,05,09,7.20
2015,10,15,05,10,7.20
2015,10,15,05,11,7.10
2015,10,15,05,12,7.10
2015,10,15,05,13,7.00
2015,10,15,05,14,7.00
2015,10,15,05,15,6.90
2015,10,15,05,16,6.90
2015,10,15,05,17,6.90
2015,10,15,05,18,6.90
2015,10,15,05,19,6.90
2015,10,15,05,20,6.90
2015,10,15,05,21,6.80
2015,10,15,05,22,6.80
2015,10,15,05,23,6.80
2015,10,15,05,24,6.80
2015,10,15,05,25,6.80
2015,10,15,05,26,6.80
2015,10,15,05,27,6.70
2015,10,15,05,28,6.70
2015,10,15,05,29,6.70
2015,10,15,05,30,6.70
2015,10,15,05,31,6.70
2015,10,15,05,32,6.60
2015,10,15,05,33,6.60
2015,10,15,05,34,6.50
2015,10,15,05,35,6.50
2015,10,15,05,36,6.40
2015,10,15,05,37,6.40
2015,10,15,05,38,6.30
2015,10,15,05,39,6.30
2015,10,15,05,40,6.40
2015,10,15,05,41,6.40
2015,10,15,05,42,6.40
2015,10,15,05,43,6.50
2015,10,15,05,44,6.60
2015,10,15,05,45,6.70
2015,10,15,05,46,6.80
2015,10,15,05,47,6.90
2015,10,15,05,48,7.00
2015,10,15,05,49,7.10
2015,10,15,05,50,7.20
2015,10,15,05,51,7.20
2015,10,15,05,52,7.20
2015,10,15,05,53,7.20
2015,10,15,05,54,7.20
2015,10,15,05,55,7.20
2015,10,15,05,56,7.20
2015,10,15,05,57,7.20
2015,10,15,05,58,7.20
2015,10,15,05,59,7.20
2015,10,15,06,00,7.20
2015,10,15,06,01,7.20
2015,10,15,06,02,7.30
2015,10,15,06,03,7.30
2015,10,15,06,04,7.30
2015,10,15,06,05,7.30
2015,10,15,06,06,7.30
2015,10,15,06,07,7.40
2015,10,15,06,08,7.40
2015,10,15,06,09,7.40
2015,10,15,06,10,7.40
2015,10,15,06,11,7.40
2015,10,15,06,12,7.40
2015,10,15,06,13,7.30
2015,10,15,06,14,7.30
2015,10,15,06,15,7.30
2015,10,15,06,16,7.30
2015,10,15,06,17,7.30
2015,10,15,06,18,7.20
2015,10,15,06,19,7.20
2015,10,15,06,20,7.20
2015,10,15,06,21,7.20
2015,10,15,06,22,7.20
2015,10,15,06,23,7.20
2015,10,15,06,24,7.20
2015,10,15,06,25,7.20
2015,10,15,06,26,7.20
2015,10,15,06,27,7.20
2015,10,15,06,28,7.20
2015,10,15,06,29,7.20
2015,10,15,06,30,7.30
2015,10,15,06,31,7.30
2015,10,15,06,32,7.30
2015,10,15,06,33,7.30
2015,10,15,06,34,7.40
2015,10,15,06,35,7.40
2015,10,15,06,36,7.40
2015,10,15,06,37,7.30
2015,10,15,06,38,7.30
2015,10,15,06,39,7.20
2015,10,15,06,40,7.20
2015,10,15,06,41,7.20
2015,10,15,06,42,7.20
2015,10,15,06,43,7.10
2015,10,15,06,44,7.00
2015,10,15,06,45,7.00
2015,10,15,06,46,7.00
2015,10,15,06,47,6.90
2015,10,15,06,48,6.80
2015,10,15,06,49,6.80
2015,10,15,06,50,6.70
2015,10,15,06,51,6.70
2015,10,15,06,52,6.70
2015,10,15,06,53,6.60
2015,10,15,06,54,6.50
2015,10,15,06,55,6.50
2015,10,15,06,56,6.50
2015,10,15,06,57,6.40
2015,10,15,06,58,6.40
2015,10,15,06,59,6.30
2015,10,15,07,00,6.30
2015,10,15,07,01,6.20
2015,10,15,07,02,6.20
2015,10,15,07,03,6.20
2015,10,15,07,04,6.10
2015,10,15,07,05,6.10
2015,10,15,07,06,6.10
2015,10,15,07,07,6.10
2015,10,15,07,08,6.10
2015,10,15,07,09,6.10
2015,10,15,07,10,6.10
2015,10,15,07,11,6.10
2015,10,15,07,12,6.10
2015,10,15,07,13,6.10
2015,10,15,07,14,6.10
2015,10,15,07,15,6.10
2015,10,15,07,16,6.10
2015,10,15,07,17,6.10
2015,10,15,07,18,6.10
2015,10,15,07,19,6.10
2015,10,15,07,20,6.10
2015,10,15,07,21,6.10
2015,10,15,07,22,6.10
2015,10,15,07,23,6.10
2015,10,15,07,24,6.10
2015,10,15,07,25,6.10
2015,10,15,07,26,6.10
2015,10,15,07,27,6.10
2015,10,15,07,28,6.20
2015,10,15,07,29,6.20
2015,10,15,07,30,6.20
2015,10,15,07,31,6.20
2015,10,15,07,32,6.20
2015,10,15,07,33,6.20
2015,10,15,07,34,6.20
2015,10,15,07,35,6.20
2015,10,15,07,36,6.20
2015,10,15,07,37,6.20
2015,10,15,07,38,6.20
2015,10,15,07,39,6.20
2015,10,15,07,40,6.20
2015,10,15,07,41,6.20
2015,10,15,07,42,6.20
2015,10,15,07,43,6.20
2015,10,15,07,44,6.20
2015,10,15,07,45,6.20
2015,10,15,07,46,6.20
2015,10,15,07,47,6.20
2015,10,15,07,48,6.20
2015,10,15,07,49,6.20
2015,10,15,07,50,6.20
2015,10,15,07,51,6.20
2015,10,15,07,52,6.20
2015,10,15,07,53,6.20
2015,10,15,07,54,6.20
2015,10,15,07,55,6.20
2015,10,15,07,56,6.30
2015,10,15,07,57,6.30
2015,10,15,07,58,6.30
2015,10,15,07,59,6.30
2015,10,15,08,00,6.40
2015,10,15,08,01,6.40
2015,10,15,08,02,6.40
2015,10,15,08,03,6.40
2015,10,15,08,04,6.50
2015,10,15,08,05,6.50
2015,10,15,08,06,6.50
2015,10,15,08,07,6.50
2015,10,15,08,08,6.50
2015,10,15,08,09,6.50
2015,10,15,08,10,6.60
2015,10,15,08,11,6.60
2015,10,15,08,12,6.60
2015,10,15,08,13,6.60
2015,10,15,08,14,6.60
2015,10,15,08,15,6.60
2015,10,15,08,16,6.60
2015,10,15,08,17,6.70
2015,10,15,08,18,6.70
2015,10,15,08,19,6.70
2015,10,15,08,20,6.70
2015,10,15,08,21,6.80
2015,10,15,08,22,6.80
2015,10,15,08,23,6.80
2015,10,15,08,24,6.80
2015,10,15,08,25,6.90
2015,10,15,08,26,6.90
2015,10,15,08,27,6.90
2015,10,15,08,28,6.90
2015,10,15,08,29,6.90
2015,10,15,08,30,7.00
2015,10,15,08,31,7.00
2015,10,15,08,32,7.00
2015,10,15,08,33,7.10
2015,10,15,08,34,7.10
2015,10,15,08,35,7.20
2015,10,15,08,36,7.20
2015,10,15,08,37,7.20
2015,10,15,08,38,7.30
2015,10,15,08,39,7.40
2015,10,15,08,40,7.50
2015,10,15,08,41,7.60
2015,10,15,08,42,7.70
2015,10,15,08,43,7.80
2015,10,15,08,44,7.90
2015,10,15,08,45,8.10
2015,10,15,08,46,8.20
2015,10,15,08,47,8.20
2015,10,15,08,48,8.30
2015,10,15,08,49,8.40
2015,10,15,08,50,8.50
2015,10,15,08,51,8.60
2015,10,15,08,52,8.60
2015,10,15,08,53,8.70
2015,10,15,08,54,8.80
2015,10,15,08,55,8.80
2015,10,15,08,56,8.90
2015,10,15,08,57,9.00
2015,10,15,08,58,9.00
2015,10,15,08,59,9.10
2015,10,15,09,00,9.10
2015,10,15,09,01,9.10
2015,10,15,09,02,9.10
2015,10,15,09,03,9.10
2015,10,15,09,04,9.10
2015,10,15,09,05,9.10
2015,10,15,09,06,9.10
2015,10,15,09,07,9.20
2015,10,15,09,08,9.20
2015,10,15,09,09,9.20
2015,10,15,09,10,9.30
2015,10,15,09,11,9.30
2015,10,15,09,12,9.30
2015,10,15,09,13,9.30
2015,10,15,09,14,9.40
2015,10,15,09,15,9.40
2015,10,15,09,16,9.40
2015,10,15,09,17,9.50
2015,10,15,09,18,9.50
2015,10,15,09,19,9.60
2015,10,15,09,20,9.60
2015,10,15,09,21,9.70
2015,10,15,09,22,9.70
2015,10,15,09,23,9.80
2015,10,15,09,24,9.90
2015,10,15,09,25,10.00
2015,10,15,09,26,10.00
2015,10,15,09,27,10.10
2015,10,15,09,28,10.10
2015,10,15,09,29,10.20
2015,10,15,09,30,10.20
2015,10,15,09,31,10.30
2015,10,15,09,32,10.30
2015,10,15,09,33,10.40
2015,10,15,09,34,10.50
2015,10,15,09,35,10.60
2015,10,15,09,36,10.70
2015,10,15,09,37,10.80
2015,10,15,09,38,10.90
2015,10,15,09,39,11.00
2015,10,15,09,40,11.10
2015,10,15,09,41,11.20
2015,10,15,09,42,11.30
2015,10,15,09,43,11.40
2015,10,15,09,44,11.60
2015,10,15,09,45,11.60
2015,10,15,09,46,11.70
2015,10,15,09,47,11.80
2015,10,15,09,48,11.90
2015,10,15,09,49,11.90
2015,10,15,09,50,12.00
2015,10,15,09,51,12.10
2015,10,15,09,52,12.10
2015,10,15,09,53,12.10
2015,10,15,09,54,12.20
2015,10,15,09,55,12.20
2015,10,15,09,56,12.20
2015,10,15,09,57,12.20
2015,10,15,09,58,12.20
2015,10,15,09,59,12.20
2015,10,15,10,00,12.30
2015,10,15,10,01,12.30
2015,10,15,10,02,12.30
2015,10,15,10,03,12.30
2015,10,15,10,04,12.40
2015,10,15,10,05,12.40
2015,10,15,10,06,12.40
2015,10,15,10,07,12.50
2015,10,15,10,08,12.60
2015,10,15,10,09,12.60
2015,10,15,10,10,12.70
2015,10,15,10,11,12.70
2015,10,15,10,12,12.70
2015,10,15,10,13,12.80
2015,10,15,10,14,12.80
2015,10,15,10,15,12.80
2015,10,15,10,16,12.90
2015,10,15,10,17,13.00
2015,10,15,10,18,13.00
2015,10,15,10,19,13.10
2015,10,15,10,20,13.10
2015,10,15,10,21,13.20
2015,10,15,10,22,13.30
2015,10,15,10,23,13.30
2015,10,15,10,24,13.30
2015,10,15,10,25,13.30
2015,10,15,10,26,13.40
2015,10,15,10,27,13.30
2015,10,15,10,28,13.40
2015,10,15,10,29,13.30
2015,10,15,10,30,13.40
2015,10,15,10,31,13.40
2015,10,15,10,32,13.40
2015,10,15,10,33,13.40
2015,10,15,10,34,13.40
2015,10,15,10,35,13.50
2015,10,15,10,36,13.50
2015,10,15,10,37,13.50
2015,10,15,10,38,13.50
2015,10,15,10,39,13.50
2015,10,15,10,40,13.60
2015,10,15,10,41,13.60
2015,10,15,10,42,13.70
2015,10,15,10,43,13.70
2015,10,15,10,44,13.70
2015,10,15,10,45,13.80
2015,10,15,10,46,13.80
2015,10,15,10,47,13.80
2015,10,15,10,48,13.80
2015,10,15,10,49,13.80
2015,10,15,10,50,13.80
2015,10,15,10,51,13.80
2015,10,15,10,52,13.90
2015,10,15,10,53,13.90
2015,10,15,10,54,13.90
2015,10,15,10,55,13.90
2015,10,15,10,56,13.90
2015,10,15,10,57,13.90
2015,10,15,10,58,13.90
2015,10,15,10,59,13.80
2015,10,15,11,00,13.90
2015,10,15,11,01,13.90
2015,10,15,11,02,13.90
2015,10,15,11,03,13.90
2015,10,15,11,04,13.90
2015,10,15,11,05,13.90
2015,10,15,11,06,13.90
2015,10,15,11,07,14.00
2015,10,15,11,08,14.00
2015,10,15,11,09,14.10
2015,10,15,11,10,14.10
2015,10,15,11,11,14.10
2015,10,15,11,12,14.10
2015,10,15,11,13,14.10
2015,10,15,11,14,14.10
2015,10,15,11,15,14.10
2015,10,15,11,16,14.10
2015,10,15,11,17,14.20
2015,10,15,11,18,14.20
2015,10,15,11,19,14.20
2015,10,15,11,20,14.20
2015,10,15,11,21,14.20
2015,10,15,11,22,14.20
2015,10,15,11,23,14.20
2015,10,15,11,24,14.20
2015,10,15,11,25,14.30
2015,10,15,11,26,14.30
2015,10,15,11,27,14.30
2015,10,15,11,28,14.30
2015,10,15,11,29,14.40
2015,10,15,11,30,14.40
2015,10,15,11,31,14.40
2015,10,15,11,32,14.50
2015,10,15,11,33,14.50
2015,10,15,11,34,14.50
2015,10,15,11,35,14.50
2015,10,15,11,36,14.50
2015,10,15,11,37,14.40
2015,10,15,11,38,14.40
2015,10,15,11,39,14.40
2015,10,15,11,40,14.40
2015,10,15,11,41,14.50
2015,10,15,11,42,14.50
2015,10,15,11,43,14.60
2015,10,15,11,44,14.60
2015,10,15,11,45,14.70
2015,10,15,11,46,14.70
2015,10,15,11,47,14.80
2015,10,15,11,48,14.80
2015,10,15,11,49,14.80
2015,10,15,11,50,14.80
2015,10,15,11,51,14.90
2015,10,15,11,52,14.90
2015,10,15,11,53,15.00
2015,10,15,11,54,15.00
2015,10,15,11,55,15.00
2015,10,15,11,56,15.10
2015,10,15,11,57,15.20
2015,10,15,11,58,15.20
2015,10,15,11,59,15.30
2015,10,15,12,00,15.30
2015,10,15,12,01,15.30
2015,10,15,12,02,15.30
2015,10,15,12,03,15.30
2015,10,15,12,04,15.30
2015,10,15,12,05,15.30
2015,10,15,12,06,15.30
2015,10,15,12,07,15.30
2015,10,15,12,08,15.20
2015,10,15,12,09,15.20
2015,10,15,12,10,15.20
2015,10,15,12,11,15.20
2015,10,15,12,12,15.20
2015,10,15,12,13,15.20
2015,10,15,12,14,15.20
2015,10,15,12,15,15.20
2015,10,15,12,16,15.20
2015,10,15,12,17,15.30
2015,10,15,12,18,15.30
2015,10,15,12,19,15.30
2015,10,15,12,20,15.30
2015,10,15,12,21,15.30
2015,10,15,12,22,15.30
2015,10,15,12,23,15.40
2015,10,15,12,24,15.40
2015,10,15,12,25,15.40
2015,10,15,12,26,15.40
2015,10,15,12,27,15.40
2015,10,15,12,28,15.40
2015,10,15,12,29,15.50
2015,10,15,12,30,15.50
2015,10,15,12,31,15.60
2015,10,15,12,32,15.50
2015,10,15,12,33,15.50
2015,10,15,12,34,15.50
2015,10,15,12,35,15.40
2015,10,15,12,36,15.30
2015,10,15,12,37,15.30
2015,10,15,12,38,15.20
2015,10,15,12,39,15.30
2015,10,15,12,40,15.30
2015,10,15,12,41,15.20
2015,10,15,12,42,15.20
2015,10,15,12,43,15.20
2015,10,15,12,44,15.20
2015,10,15,12,45,15.20
2015,10,15,12,46,15.20
2015,10,15,12,47,15.30
2015,10,15,12,48,15.30
2015,10,15,12,49,15.30
2015,10,15,12,50,15.40
2015,10,15,12,51,15.50
2015,10,15,12,52,15.50
2015,10,15,12,53,15.50
2015,10,15,12,54,15.60
2015,10,15,12,55,15.60
2015,10,15,12,56,15.70
2015,10,15,12,57,15.80
2015,10,15,12,58,15.90
2015,10,15,12,59,16.00
2015,10,15,13,00,16.00
2015,10,15,13,01,16.10
2015,10,15,13,02,16.10
2015,10,15,13,03,16.20
2015,10,15,13,04,16.20
2015,10,15,13,05,16.30
2015,10,15,13,06,16.40
2015,10,15,13,07,16.40
2015,10,15,13,08,16.50
2015,10,15,13,09,16.50
2015,10,15,13,10,16.60
2015,10,15,13,11,16.60
2015,10,15,13,12,16.60
2015,10,15,13,13,16.70
2015,10,15,13,14,16.80
2015,10,15,13,15,16.80
2015,10,15,13,16,16.80
2015,10,15,13,17,16.80
2015,10,15,13,18,16.70
2015,10,15,13,19,16.70
2015,10,15,13,20,16.80
2015,10,15,13,21,16.80
2015,10,15,13,22,16.80
2015,10,15,13,23,16.80
2015,10,15,13,24,16.90
2015,10,15,13,25,16.90
2015,10,15,13,26,16.90
2015,10,15,13,27,17.00
2015,10,15,13,28,17.00
2015,10,15,13,29,17.10
2015,10,15,13,30,17.10
2015,10,15,13,31,17.10
2015,10,15,13,32,17.10
2015,10,15,13,33,17.10
2015,10,15,13,34,17.10
2015,10,15,13,35,17.10
2015,10,15,13,36,17.10
2015,10,15,13,37,17.10
2015,10,15,13,38,17.20
2015,10,15,13,39,17.20
2015,10,15,13,40,17.30
2015,10,15,13,41,17.30
2015,10,15,13,42,17.40
2015,10,15,13,43,17.50
2015,10,15,13,44,17.50
2015,10,15,13,45,17.50
2015,10,15,13,46,17.60
2015,10,15,13,47,17.70
2015,10,15,13,48,17.70
2015,10,15,13,49,17.60
2015,10,15,13,50,17.60
2015,10,15,13,51,17.60
2015,10,15,13,52,17.60
2015,10,15,13,53,17.60
2015,10,15,13,54,17.60
2015,10,15,13,55,17.60
2015,10,15,13,56,17.60
2015,10,15,13,57,17.60
2015,10,15,13,58,17.60
2015,10,15,13,59,17.60
2015,10,15,14,00,17.60
2015,10,15,14,01,17.60
2015,10,15,14,02,17.60
2015,10,15,14,03,17.60
2015,10,15,14,04,17.60
2015,10,15,14,05,17.50
2015,10,15,14,06,17.60
2015,10,15,14,07,17.50
2015,10,15,14,08,17.50
2015,10,15,14,09,17.50
2015,10,15,14,10,17.40
2015,10,15,14,11,17.40
2015,10,15,14,12,17.30
2015,10,15,14,13,17.30
2015,10,15,14,14,17.30
2015,10,15,14,15,17.40
2015,10,15,14,16,17.40
2015,10,15,14,17,17.40
2015,10,15,14,18,17.40
2015,10,15,14,19,17.40
2015,10,15,14,20,17.40
2015,10,15,14,21,17.40
2015,10,15,14,22,17.40
2015,10,15,14,23,17.30
2015,10,15,14,24,17.40
2015,10,15,14,25,17.40
2015,10,15,14,26,17.40
2015,10,15,14,27,17.40
2015,10,15,14,28,17.50
2015,10,15,14,29,17.50
2015,10,15,14,30,17.60
2015,10,15,14,31,17.60
2015,10,15,14,32,17.60
2015,10,15,14,33,17.60
2015,10,15,14,34,17.60
2015,10,15,14,35,17.60
2015,10,15,14,36,17.60
2015,10,15,14,37,17.60
2015,10,15,14,38,17.60
2015,10,15,14,39,17.60
2015,10,15,14,40,17.60
2015,10,15,14,41,17.60
2015,10,15,14,42,17.60
2015,10,15,14,43,17.70
2015,10,15,14,44,17.60
2015,10,15,14,45,17.60
2015,10,15,14,46,17.60
2015,10,15,14,47,17.60
2015,10,15,14,48,17.60
2015,10,15,14,49,17.60
2015,10,15,14,50,17.50
2015,10,15,14,51,17.50
2015,10,15,14,52,17.50
2015,10,15,14,53,17.60
2015,10,15,14,54,17.60
2015,10,15,14,55,17.60
2015,10,15,14,56,17.70
2015,10,15,14,57,17.70
2015,10,15,14,58,17.70
2015,10,15,14,59,17.80
2015,10,15,15,00,17.90
2015,10,15,15,01,17.90
2015,10,15,15,02,17.90
2015,10,15,15,03,17.90
2015,10,15,15,04,17.90
2015,10,15,15,05,17.90
2015,10,15,15,06,18.00
2015,10,15,15,07,18.00
2015,10,15,15,08,18.10
2015,10,15,15,09,18.20
2015,10,15,15,10,18.30
2015,10,15,15,11,18.30
2015,10,15,15,12,18.30
2015,10,15,15,13,18.40
2015,10,15,15,14,18.50
2015,10,15,15,15,18.60
2015,10,15,15,16,18.60
2015,10,15,15,17,18.70
2015,10,15,15,18,18.70
2015,10,15,15,19,18.70
2015,10,15,15,20,18.70
2015,10,15,15,21,18.80
2015,10,15,15,22,18.80
2015,10,15,15,23,18.80
2015,10,15,15,24,18.80
2015,10,15,15,25,18.80
2015,10,15,15,26,18.80
2015,10,15,15,27,18.80
2015,10,15,15,28,18.90
2015,10,15,15,29,18.90
2015,10,15,15,30,19.00
2015,10,15,15,31,19.00
2015,10,15,15,32,19.10
2015,10,15,15,33,19.10
2015,10,15,15,34,19.10
2015,10,15,15,35,19.10
2015,10,15,15,36,19.10
2015,10,15,15,37,19.10
2015,10,15,15,38,19.10
2015,10,15,15,39,19.10
2015,10,15,15,40,19.00
2015,10,15,15,41,19.00
2015,10,15,15,42,19.00
2015,10,15,15,43,19.00
2015,10,15,15,44,19.00
2015,10,15,15,45,19.00
2015,10,15,15,46,18.90
2015,10,15,15,47,18.90
2015,10,15,15,48,18.80
2015,10,15,15,49,18.80
2015,10,15,15,50,18.70
2015,10,15,15,51,18.70
2015,10,15,15,52,18.70
2015,10,15,15,53,18.60
2015,10,15,15,54,18.60
2015,10,15,15,55,18.60
2015,10,15,15,56,18.70
2015,10,15,15,57,18.60
2015,10,15,15,58,18.60
2015,10,15,15,59,18.60
2015,10,15,16,00,18.60
2015,10,15,16,01,18.60
2015,10,15,16,02,18.60
2015,10,15,16,03,18.60
2015,10,15,16,04,18.60
2015,10,15,16,05,18.50
2015,10,15,16,06,18.50
2015,10,15,16,07,18.50
2015,10,15,16,08,18.50
2015,10,15,16,09,18.60
2015,10,15,16,10,18.60
2015,10,15,16,11,18.60
2015,10,15,16,12,18.60
2015,10,15,16,13,18.60
2015,10,15,16,14,18.50
2015,10,15,16,15,18.50
2015,10,15,16,16,18.40
2015,10,15,16,17,18.40
2015,10,15,16,18,18.40
2015,10,15,16,19,18.40
2015,10,15,16,20,18.30
2015,10,15,16,21,18.30
2015,10,15,16,22,18.30
2015,10,15,16,23,18.30
2015,10,15,16,24,18.30
2015,10,15,16,25,18.30
2015,10,15,16,26,18.30
2015,10,15,16,27,18.30
2015,10,15,16,28,18.40
2015,10,15,16,29,18.40
2015,10,15,16,30,18.40
2015,10,15,16,31,18.40
2015,10,15,16,32,18.40
2015,10,15,16,33,18.40
2015,10,15,16,34,18.40
2015,10,15,16,35,18.50
2015,10,15,16,36,18.50
2015,10,15,16,37,18.50
2015,10,15,16,38,18.50
2015,10,15,16,39,18.60
2015,10,15,16,40,18.60
2015,10,15,16,41,18.60
2015,10,15,16,42,18.70
2015,10,15,16,43,18.70
2015,10,15,16,44,18.80
2015,10,15,16,45,18.80
2015,10,15,16,46,18.80
2015,10,15,16,47,18.80
2015,10,15,16,48,18.80
2015,10,15,16,49,18.80
2015,10,15,16,50,18.80
2015,10,15,16,51,18.80
2015,10,15,16,52,18.80
2015,10,15,16,53,18.80
2015,10,15,16,54,18.70
2015,10,15,16,55,18.70
2015,10,15,16,56,18.70
2015,10,15,16,57,18.70
2015,10,15,16,58,18.80
2015,10,15,16,59,18.80
2015,10,15,17,00,18.90
2015,10,15,17,01,18.90
2015,10,15,17,02,18.90
2015,10,15,17,03,18.90
2015,10,15,17,04,19.00
2015,10,15,17,05,18.90
2015,10,15,17,06,18.90
2015,10,15,17,07,18.90
2015,10,15,17,08,19.00
2015,10,15,17,09,18.90
2015,10,15,17,10,18.90
2015,10,15,17,11,18.90
2015,10,15,17,12,18.90
2015,10,15,17,13,18.80
2015,10,15,17,14,18.80
2015,10,15,17,15,18.80
2015,10,15,17,16,18.70
2015,10,15,17,17,18.70
2015,10,15,17,18,18.60
2015,10,15,17,19,18.60
2015,10,15,17,20,18.60
2015,10,15,17,21,18.60
2015,10,15,17,22,18.60
2015,10,15,17,23,18.50
2015,10,15,17,24,18.50
2015,10,15,17,25,18.40
2015,10,15,17,26,18.40
2015,10,15,17,27,18.40
2015,10,15,17,28,18.30
2015,10,15,17,29,18.30
2015,10,15,17,30,18.20
2015,10,15,17,31,18.10
2015,10,15,17,32,18.10
2015,10,15,17,33,18.00
2015,10,15,17,34,17.90
2015,10,15,17,35,17.80
2015,10,15,17,36,17.80
2015,10,15,17,37,17.70
2015,10,15,17,38,17.60
2015,10,15,17,39,17.60
2015,10,15,17,40,17.50
2015,10,15,17,41,17.40
2015,10,15,17,42,17.40
2015,10,15,17,43,17.30
2015,10,15,17,44,17.30